Location: Atlantic Beach
(40.5890°N, 73.7290°W)
Time: 07:54:23
(UTC+00:00)

Envisat - Pass Details

Date: 25 January 2021
Orbit: 764 x 766 km, 98.1° (Epoch: 24 February)

Event Time Altitude Azimuth Distance (km) Brightness Sun altitude
Rises 11:15:12 0° 6° (N) 3,240 6.1 -10.7°
Reaches altitude 10° 11:17:35 10° 0° (N) 2,310 5.3 -10.2°
Maximum altitude 11:22:24 45° 289° (WNW) 1,038 3.3 -9.4°
Drops below altitude 10° 11:27:12 10° 218° (SW) 2,294 5.3 -8.5°
Sets 11:29:34 0° 212° (SSW) 3,216 6.1 -8.1°
